Theta_e
315 315 318 321 319 321 321 323 321 321 321 316 317 320 321 324 324 326 328 328 329 330 326 327 331 332 332 334 335 333 334 336 334 333 334 336 335 336 336 336 333 329 332 333 334 336 334 335 333 332 334 334 333 332 332 334 335 334 333 334 333 332 332 331 332 332 331 332 332 332 331 331 331 332 332 333 333 333 333 333 333 333 334 334 334 333 333 333 333 333 331 330 329 328 327 327 325
317 317 320 320 320 321 321 323 321 318 317 314 317 320 321 323 324 328 329 328 331 329 326 329 331 331 331 331 332 333 335 333 331 334 336 335 336 336 336 335 331 330 333 334 334 336 336 334 331 332 334 333 333 333 333 334 335 334 334 335 334 332 331 331 331 332 332 332 332 332 332 331 331 332 333 333 333 333 334 334 334 334 334 334 333 332 333 333 333 332 331 330 329 328 327 326 324
318 318 319 320 322 322 321 322 319 314 313 313 316 320 321 324 326 327 327 327 331 329 328 330 331 331 330 331 332 334 337 332 331 335 336 336 336 336 336 334 331 332 333 334 334 336 337 333 331 333 333 333 333 333 334 335 335 334 335 335 333 332 331 331 331 331 332 332 331 331 332 332 331 331 333 333 333 333 333 333 333 333 333 332 333 333 332 332 332 332 332 330 329 329 327 326 325
319 317 319 320 323 323 322 322 320 315 312 313 314 319 322 325 327 325 326 329 329 327 329 331 332 331 331 333 332 333 337 334 334 336 336 337 337 336 335 332 331 333 333 334 335 336 336 332 331 332 332 333 333 333 334 335 335 334 334 333 331 330 330 331 331 330 330 330 330 331 331 332 332 331 332 333 333 332 332 333 333 333 332 332 332 332 332 331 331 332 331 331 330 329 327 327 325
319 317 318 321 323 323 322 322 321 317 314 315 315 318 321 324 326 325 329 330 327 326 328 331 333 331 331 334 332 333 336 335 336 336 336 337 336 336 334 330 330 333 333 333 334 336 334 331 329 330 332 333 333 333 333 334 334 333 332 331 331 329 328 330 331 330 330 331 331 332 332 333 332 332 332 332 332 332 333 333 333 333 333 332 331 330 330 331 331 331 330 330 329 328 327 326 324
320 319 319 320 321 322 321 318 317 316 318 319 317 318 320 322 325 328 330 330 326 325 324 328 332 332 333 333 332 333 335 335 336 336 336 337 336 335 333 329 331 333 333 333 334 336 334 330 328 329 331 333 333 334 334 333 333 333 330 329 331 330 330 331 331 332 332 333 333 332 331 332 331 330 331 332 331 332 333 333 333 334 333 333 330 329 329 330 330 330 329 329 328 327 326 325 324
319 320 321 321 320 320 319 316 316 318 319 320 318 318 319 320 326 329 330 329 327 324 321 326 330 331 333 333 333 334 333 335 336 336 336 337 335 334 332 330 332 333 332 333 334 335 333 330 329 328 330 332 332 333 333 333 333 333 329 327 330 330 331 333 332 332 333 333 333 331 330 331 331 329 331 331 332 332 333 333 333 333 332 332 330 329 330 330 330 329 329 328 327 327 325 325 324
318 319 321 322 321 321 318 316 318 319 318 317 317 317 317 320 326 329 330 329 326 324 324 327 329 330 332 331 335 335 332 334 335 337 336 336 335 333 332 330 332 332 332 333 334 334 332 331 331 329 328 329 329 331 332 332 332 331 328 326 329 332 332 333 332 332 332 333 333 331 330 330 331 331 331 332 332 332 332 332 332 332 331 330 329 330 330 330 329 328 328 327 327 325 324 323 322
318 320 321 322 322 321 318 316 317 319 318 317 316 316 316 318 326 329 329 326 322 324 327 329 327 327 332 332 336 335 333 335 335 336 336 335 334 333 331 330 331 332 332 332 334 334 332 332 332 332 329 327 326 328 331 330 330 329 329 329 329 331 332 332 332 331 331 332 332 331 331 330 331 331 331 332 332 331 331 331 331 331 330 330 330 330 329 328 327 327 327 326 324 323 322 321 320
320 320 322 323 322 320 317 315 316 318 318 317 316 317 316 319 326 329 328 326 322 325 328 327 324 325 332 334 335 334 334 335 335 336 335 335 333 332 330 330 331 331 331 331 333 333 332 332 332 332 330 330 326 326 330 329 329 329 331 331 329 330 332 332 331 330 330 331 331 330 329 329 330 330 330 331 331 331 331 330 330 330 330 330 330 329 329 328 326 325 325 323 321 320 320 319 319
321 320 321 322 320 319 317 315 315 317 318 317 317 316 316 321 326 327 325 324 323 327 328 325 325 328 332 334 335 333 333 335 336 336 335 334 333 331 330 329 331 331 331 331 332 333 332 332 333 332 330 331 329 327 328 327 328 330 331 331 330 331 331 331 330 328 329 331 330 330 329 330 330 330 330 330 331 330 330 330 330 329 329 329 328 328 327 326 324 322 322 321 320 320 320 320 320
321 321 322 322 319 319 318 317 317 318 319 319 320 318 316 321 326 325 324 324 323 326 327 326 327 330 333 334 334 333 333 336 335 335 335 334 332 331 329 329 330 331 330 330 330 332 332 332 333 332 331 331 330 329 326 324 328 331 331 331 330 331 330 330 328 326 329 331 330 330 330 330 330 330 330 330 330 330 330 330 329 328 328 328 328 327 325 324 322 321 320 320 321 320 320 321 320
322 322 323 322 319 319 318 318 318 318 319 320 322 319 318 322 326 325 323 324 323 326 326 324 328 329 331 333 333 333 334 336 335 335 334 333 332 329 327 328 330 331 330 329 330 331 331 332 333 332 331 330 330 329 328 325 328 331 331 331 331 331 330 329 328 327 329 331 330 330 330 330 329 329 329 329 329 329 329 329 328 328 328 329 328 327 325 323 322 321 320 320 320 321 321 321 321
320 321 321 321 320 320 318 319 319 316 317 320 319 317 319 322 322 322 322 323 323 324 324 324 328 327 328 330 331 333 335 336 336 335 334 333 332 328 326 326 329 330 329 329 330 331 330 331 333 333 332 332 331 330 329 327 326 329 330 330 331 330 329 327 327 328 329 330 330 329 329 328 328 328 328 328 328 329 328 328 329 329 328 327 327 326 324 323 322 321 321 321 320 321 321 321 321
319 319 321 322 320 319 319 319 319 316 315 318 317 316 320 318 316 320 321 323 323 321 322 325 327 324 325 327 330 334 336 335 335 335 333 333 331 328 326 325 327 329 329 329 329 330 330 331 332 333 332 333 332 331 331 329 327 327 329 329 329 329 328 326 326 329 329 329 329 328 327 327 327 327 326 327 327 327 327 328 328 328 327 326 326 326 324 323 322 321 321 321 320 321 320 321 321
318 319 321 321 319 320 319 318 318 317 316 317 314 314 320 317 313 318 318 319 321 319 323 327 325 325 324 325 328 333 337 335 335 335 333 333 331 328 326 327 328 328 328 329 329 329 330 331 331 332 333 332 332 332 331 331 328 326 327 329 328 328 328 326 326 329 330 329 328 327 327 326 327 326 325 326 326 326 326 326 327 327 327 327 326 326 325 322 322 321 321 321 320 320 320 320 321
317 319 321 320 319 320 319 319 318 316 316 316 314 315 322 320 313 314 315 318 322 322 324 326 325 326 326 326 326 331 337 335 335 334 333 333 330 328 327 328 328 328 328 328 328 329 329 330 330 331 332 332 332 331 330 331 329 326 326 328 328 328 328 327 326 327 330 329 328 327 327 328 328 327 326 326 326 325 325 325 325 325 325 325 324 325 324 321 321 322 321 321 321 320 321 321 321
318 320 320 319 320 320 319 319 316 315 316 315 314 315 321 322 316 315 318 320 322 323 325 326 326 326 328 329 326 331 336 335 335 334 332 332 330 329 328 328 328 327 327 327 327 328 329 330 330 330 330 331 331 331 330 329 329 328 327 327 328 328 327 328 326 326 328 329 328 327 327 328 328 328 328 327 327 326 326 325 325 324 324 324 322 323 322 321 322 322 321 321 321 320 320 321 321
318 319 318 319 321 319 316 316 314 314 315 314 313 313 318 321 317 317 319 320 322 323 325 326 327 328 329 329 329 333 336 334 335 335 333 332 331 330 329 328 328 328 328 327 327 327 328 329 329 329 329 330 330 329 329 328 328 329 328 327 327 328 327 328 327 325 327 329 328 328 328 328 328 328 327 326 325 324 324 323 323 322 322 322 322 323 322 323 323 322 322 321 321 321 321 321 322
317 317 320 319 319 317 314 314 313 312 312 313 313 311 314 318 316 317 320 321 321 321 323 325 327 328 330 330 332 334 335 335 335 335 334 333 332 331 330 329 328 328 328 328 327 327 328 328 329 328 329 329 329 328 328 328 328 328 328 328 327 327 327 328 327 325 327 328 327 328 328 326 326 326 325 323 323 323 321 321 320 320 321 320 321 323 323 323 323 323 322 321 321 321 321 322 322
318 318 321 317 315 315 313 312 311 310 310 311 313 311 314 315 314 317 319 320 321 321 322 323 324 327 330 330 332 334 335 335 334 335 335 334 333 332 331 330 329 328 329 328 328 327 327 328 328 328 328 328 328 327 327 327 327 327 328 328 327 327 327 327 326 325 325 326 326 327 326 324 324 325 324 324 325 324 323 322 321 320 320 319 318 321 323 324 324 324 323 321 322 321 321 321 322
319 316 316 314 313 315 312 310 309 309 308 310 312 313 314 313 313 317 318 320 321 319 320 321 322 326 331 330 332 334 335 335 335 335 335 334 333 332 332 331 330 329 329 329 327 327 327 328 328 328 328 328 328 326 326 327 327 327 327 327 327 326 327 326 326 325 324 323 324 326 324 323 322 324 325 325 326 325 324 324 322 319 318 318 316 318 320 322 323 323 322 321 321 321 321 321 320
321 316 311 311 311 312 311 309 308 308 308 311 312 312 313 313 315 315 316 319 318 315 316 317 320 327 332 332 333 334 335 336 335 335 335 334 333 333 332 332 331 330 329 328 328 327 326 327 327 327 327 327 327 326 326 326 326 326 326 326 326 327 326 325 325 324 323 321 321 322 322 322 321 322 325 325 325 324 324 325 323 320 318 317 317 317 317 318 320 321 320 320 321 321 321 321 320
320 317 310 310 310 309 310 309 308 307 308 311 311 311 312 314 315 314 315 317 316 318 317 314 319 329 332 332 333 334 336 335 335 335 335 334 334 333 332 333 332 331 330 329 329 327 325 325 326 327 327 327 326 326 326 326 326 325 326 324 323 325 325 325 325 323 321 319 319 319 320 320 318 319 322 323 322 322 322 322 320 318 316 316 316 316 316 316 317 319 320 321 321 321 320 319 319
320 318 310 308 309 309 311 311 309 307 308 308 308 311 313 313 313 311 314 316 315 320 320 317 323 330 330 331 332 335 336 335 335 335 335 334 334 333 333 333 332 332 331 330 330 328 326 325 325 326 326 326 326 326 326 326 326 325 325 323 320 322 322 324 324 320 319 319 318 317 316 317 316 316 317 318 318 318 319 317 315 315 314 314 313 314 314 316 318 319 321 322 321 320 320 320 318
321 317 312 310 311 313 314 313 310 309 310 309 309 312 313 311 310 312 315 314 316 320 322 323 326 328 329 330 332 335 336 335 335 334 335 334 334 333 333 333 332 332 331 331 331 329 328 325 324 324 324 325 325 326 326 325 325 324 324 321 319 318 318 321 320 317 318 317 315 314 315 315 315 315 315 315 316 317 318 317 317 316 316 317 315 314 315 316 318 320 320 321 320 321 322 321 320
320 317 315 315 316 317 316 317 315 312 311 309 310 313 312 309 310 315 314 312 316 320 323 325 325 327 329 330 332 334 335 335 335 334 334 334 334 334 333 333 333 332 332 331 331 331 329 327 324 322 322 322 323 325 326 325 324 323 321 319 318 317 316 318 316 315 316 313 313 313 312 314 314 315 314 316 318 319 320 320 321 319 317 320 320 319 318 318 320 321 321 322 323 323 323 323 322
317 317 318 318 319 320 318 321 319 313 313 310 310 312 311 309 310 315 315 313 316 320 324 326 325 327 329 330 331 333 334 335 335 334 334 334 334 334 333 333 333 333 332 332 332 332 331 328 326 324 323 322 322 324 324 323 323 321 320 318 317 317 316 317 315 315 314 312 313 312 312 313 313 314 315 317 320 322 323 324 324 322 320 321 322 322 322 321 322 322 322 323 324 324 324 324 323
317 317 322 323 322 323 322 324 320 315 317 310 309 314 313 312 312 313 314 314 318 320 324 326 325 327 328 330 330 332 334 334 334 334 334 334 334 333 333 333 333 333 333 332 332 332 332 330 328 327 325 323 322 323 323 323 321 320 320 319 318 317 317 318 316 316 315 314 314 314 315 314 315 316 316 319 322 324 326 326 325 323 322 322 323 324 323 323 323 324 324 324 324 324 324 324 324
321 319 324 327 328 328 323 321 318 317 318 311 311 319 318 315 314 312 313 315 318 319 321 323 325 327 327 329 330 331 333 333 334 333 334 334 334 333 333 333 333 333 333 332 333 332 332 331 330 329 327 326 324 323 323 323 322 321 321 320 320 320 319 319 318 318 317 317 317 316 317 317 318 320 320 322 324 326 326 327 326 324 324 324 324 325 325 325 325 325 325 325 324 324 324 324 324
323 321 324 326 331 331 320 314 315 320 316 308 314 321 321 318 316 313 312 315 317 316 319 321 324 325 325 328 328 329 332 333 333 333 334 333 333 333 333 333 333 333 333 332 333 332 332 331 331 331 330 328 327 325 324 324 323 322 322 322 322 322 321 321 320 320 320 319 319 318 318 318 319 320 322 324 325 326 326 326 327 326 325 325 325 325 325 325 325 325 325 324 324 323 324 323 323
322 327 330 326 329 330 322 313 312 319 312 307 317 324 320 318 316 311 310 314 315 314 317 319 323 325 324 327 327 329 330 332 333 332 333 333 333 333 332 333 332 332 333 332 332 332 332 332 331 331 331 330 329 328 326 325 325 324 324 324 324 324 324 323 323 322 322 322 322 322 322 321 320 320 321 323 324 325 326 326 327 327 326 325 325 325 325 325 325 324 324 324 323 323 323 323 323
321 327 333 328 327 328 325 316 309 312 311 308 316 321 318 315 314 310 308 312 315 314 315 316 320 323 323 325 326 328 329 330 332 332 332 332 332 332 332 333 332 332 332 332 333 332 332 332 331 331 331 331 330 330 329 327 327 327 326 326 326 326 326 326 326 326 325 325 325 325 326 325 324 322 321 322 323 324 325 326 327 327 327 326 326 325 325 324 324 324 324 324 323 323 323 323 323
323 325 330 328 324 325 326 319 310 309 312 313 313 314 316 315 314 312 309 311 314 314 315 314 317 319 321 324 325 327 328 329 330 331 332 331 332 332 332 332 332 332 332 332 332 332 332 332 332 331 331 331 331 331 330 329 329 328 328 328 328 327 328 328 328 329 329 328 328 328 329 329 327 325 323 322 323 324 326 326 327 327 327 326 326 325 324 324 323 323 324 324 324 323 323 323 323
327 326 329 328 323 322 323 320 312 309 312 314 314 313 315 314 312 312 311 311 312 313 314 314 314 316 319 322 324 326 327 328 330 331 331 331 332 332 332 332 332 332 332 332 332 331 331 331 331 331 330 331 331 331 331 330 330 330 330 330 329 329 329 330 330 330 331 331 331 331 331 330 330 328 325 325 325 325 326 327 327 326 325 325 325 325 323 324 323 323 323 324 324 323 322 323 323
329 327 329 330 328 324 321 318 311 308 311 313 314 315 315 315 313 313 313 313 312 312 312 313 313 313 316 319 322 324 326 326 329 331 331 331 331 331 331 331 331 331 331 331 331 331 331 331 331 330 330 330 331 331 331 331 331 330 331 331 330 330 330 331 331 331 331 331 331 332 333 332 331 330 328 327 327 326 327 327 327 326 325 324 324 324 323 325 324 323 323 324 324 323 323 323 324
329 328 327 328 328 327 321 316 309 307 313 316 314 314 313 313 313 312 312 313 311 311 312 312 312 314 314 316 319 322 324 326 328 329 329 330 330 330 330 330 330 330 331 331 331 331 331 330 330 330 330 330 330 331 331 332 332 331 331 331 331 330 330 331 332 333 333 332 332 332 333 333 332 332 330 329 329 328 328 327 327 327 326 325 325 324 324 325 325 324 324 324 324 324 324 324 323
327 327 327 327 327 326 320 315 311 307 313 319 314 313 314 313 313 312 312 312 311 311 312 312 312 313 314 315 316 319 321 323 326 326 327 328 328 329 329 329 330 330 330 330 330 331 331 331 330 330 330 330 330 330 331 332 332 332 332 332 332 331 331 330 331 333 333 333 333 332 333 333 333 332 332 331 330 330 329 328 328 327 327 326 326 326 326 326 326 325 324 324 324 323 324 324 323
326 326 326 329 325 323 320 314 310 308 313 320 315 313 315 315 314 313 312 311 311 311 311 312 313 313 313 313 314 316 317 319 320 322 324 326 326 328 329 329 329 329 329 330 330 330 330 330 330 330 330 330 330 330 331 332 332 332 332 332 332 332 331 331 330 331 332 332 333 333 333 332 332 332 332 331 331 331 330 329 327 326 327 327 327 326 326 326 326 325 324 324 324 324 324 324 322
324 324 327 328 322 323 325 316 310 309 311 313 312 311 314 315 315 314 313 312 311 312 311 311 312 313 313 313 314 314 314 316 316 318 321 323 325 327 327 328 329 329 329 329 329 330 330 330 331 331 331 331 331 330 331 332 332 332 332 333 332 332 331 331 330 330 330 330 331 331 332 332 332 332 331 331 331 331 330 329 327 327 328 328 326 326 326 326 326 326 325 324 325 324 324 323 322
321 322 327 326 321 321 322 316 312 312 310 309 311 316 318 318 319 317 315 313 311 311 311 311 311 312 312 313 313 313 312 314 315 316 317 320 322 324 326 327 328 328 329 329 329 329 330 330 330 331 331 331 331 331 330 331 332 332 332 332 332 332 332 331 331 330 330 330 330 330 330 331 331 331 332 332 331 331 331 330 328 327 328 327 326 326 326 326 326 326 325 325 325 325 325 324 323
322 321 323 324 322 321 317 315 317 321 320 312 312 323 324 318 318 318 316 314 312 312 311 310 311 310 311 311 311 312 312 312 312 313 315 317 318 320 323 326 327 328 328 328 329 329 329 330 330 331 331 331 331 331 331 330 331 332 332 332 332 332 332 332 331 331 331 330 330 330 329 329 330 330 331 331 330 329 330 331 329 329 328 327 327 327 325 326 326 326 326 326 325 325 325 324 324
326 321 320 321 321 319 316 316 320 326 324 313 311 321 323 318 317 318 316 316 314 314 312 311 311 310 310 310 309 311 311 311 312 312 312 313 315 317 319 322 324 326 326 326 328 328 328 328 329 330 330 330 331 331 331 330 331 331 332 332 332 332 332 331 331 331 331 330 330 330 329 329 329 329 330 331 330 329 328 328 328 329 329 328 328 327 325 326 326 326 326 325 326 325 325 324 324
327 319 316 318 318 319 318 318 321 320 317 315 313 315 319 318 318 317 316 317 317 316 315 314 313 312 311 310 310 310 310 311 312 313 311 311 313 314 315 317 319 321 322 325 327 327 327 327 328 329 329 330 330 330 330 330 330 330 331 331 331 332 331 331 331 331 331 330 330 330 329 329 329 328 329 330 331 331 329 328 327 328 329 329 329 328 326 326 326 326 325 326 326 326 325 325 325
322 314 315 318 317 319 318 316 318 315 315 322 318 314 321 324 319 315 313 315 317 317 317 316 315 314 313 311 311 311 311 311 311 312 311 311 312 312 312 314 314 315 318 322 323 325 326 328 328 329 329 329 329 329 330 330 330 330 330 330 330 331 331 331 331 330 330 330 329 329 329 329 328 328 328 329 330 331 331 330 329 328 328 328 329 329 326 325 326 326 326 326 326 326 326 325 324
316 313 315 315 315 317 317 318 319 316 318 325 321 316 323 327 321 318 315 314 317 318 317 317 316 316 315 313 313 313 312 311 310 310 310 311 311 311 310 311 311 312 313 316 319 322 324 326 327 328 328 328 328 328 329 329 329 329 329 329 330 330 330 330 330 330 330 329 329 329 328 329 329 328 328 329 330 330 330 330 330 330 329 327 327 327 325 325 327 327 327 327 327 326 325 324 323
313 314 314 314 316 317 318 320 319 320 323 324 321 317 320 325 324 322 319 315 315 317 317 317 315 315 315 314 313 312 310 309 309 308 309 309 309 308 308 308 308 309 309 311 314 316 319 322 324 326 327 327 328 328 328 328 329 329 329 329 329 329 329 329 329 329 329 329 329 329 328 328 328 328 328 328 329 329 330 329 328 328 329 328 327 327 326 325 326 326 327 327 326 325 324 323 322
313 315 316 317 319 317 318 318 318 324 327 320 314 313 317 324 323 319 318 315 312 313 314 315 314 314 314 314 312 310 309 308 308 309 310 309 308 307 307 307 307 307 307 308 310 312 316 319 322 325 325 326 327 327 327 328 328 328 328 328 329 329 329 329 329 329 329 329 329 328 328 328 328 328 328 328 328 328 329 328 326 327 328 329 328 329 327 325 326 327 326 325 325 324 323 322 321
315 315 319 323 322 321 324 323 321 325 324 312 308 311 315 320 320 317 317 316 314 313 312 312 313 312 312 313 311 309 309 309 309 311 312 310 308 308 308 307 307 307 306 306 307 309 312 316 320 324 325 325 326 326 327 328 327 328 328 328 328 329 329 329 328 328 328 328 328 328 328 329 329 328 328 328 327 327 327 327 327 327 328 328 328 328 326 325 327 327 325 324 324 323 321 320 319
316 317 323 326 325 327 331 327 324 326 320 309 307 313 316 319 318 315 316 316 314 312 311 311 311 310 311 310 309 309 309 309 309 309 309 308 308 308 307 307 307 306 305 305 305 306 309 312 317 321 322 323 325 326 327 327 327 327 327 327 328 328 329 329 329 328 328 328 328 328 328 328 329 328 328 328 328 328 326 326 327 327 328 328 328 327 325 326 327 326 324 323 322 321 320 319 318
316 318 321 324 324 328 332 329 327 327 319 311 310 317 322 321 317 312 311 312 311 310 309 308 308 308 307 307 308 310 310 309 309 308 307 307 307 307 307 306 307 306 305 305 304 304 306 310 314 317 319 322 325 326 326 326 327 327 327 327 328 328 328 329 329 329 329 328 328 328 328 328 328 328 329 329 330 329 328 327 327 327 326 326 326 325 325 325 325 325 323 322 321 320 319 319 318
316 315 318 322 322 321 321 320 319 319 318 315 313 317 319 317 315 313 313 313 311 311 309 306 308 308 308 310 311 312 312 311 310 309 309 309 308 308 308 307 307 306 306 305 304 304 304 307 313 316 318 321 323 324 325 325 326 326 327 327 327 327 328 328 329 329 328 328 328 327 328 328 328 329 330 330 330 330 328 327 327 325 325 325 325 325 324 324 324 323 322 320 319 319 318 317 316
315 315 318 318 315 315 316 315 311 312 320 322 315 316 317 316 317 315 313 314 312 312 311 308 310 311 313 316 316 315 314 313 311 309 308 308 309 308 308 307 306 306 307 306 306 304 303 305 310 315 317 319 322 323 324 324 325 326 326 326 327 327 327 328 328 328 328 328 327 327 327 327 328 329 330 330 330 330 329 327 326 325 324 325 325 325 324 323 323 321 320 319 318 316 315 314 313
316 317 317 315 314 315 316 318 314 313 320 321 314 316 318 318 320 315 311 314 314 314 313 310 310 312 314 316 316 315 313 311 310 309 308 308 308 309 308 306 305 307 308 308 308 307 305 304 307 311 316 318 320 322 323 323 324 324 325 325 326 326 327 327 327 328 328 328 327 327 327 327 328 329 330 330 329 329 329 327 326 325 325 325 324 324 323 322 321 320 319 318 316 314 313 313 313
313 315 316 316 319 319 317 319 319 318 320 319 314 313 313 315 318 314 314 315 314 314 313 311 310 311 313 314 316 315 314 313 312 311 310 309 309 309 307 306 305 307 309 309 308 308 307 306 305 307 312 315 317 319 321 322 323 323 324 324 325 326 326 326 327 327 327 327 327 326 327 327 328 329 329 329 329 328 328 327 326 325 325 325 323 322 322 321 319 318 317 316 314 313 313 313 312
311 313 315 315 317 319 318 318 320 320 321 320 317 315 314 315 315 314 316 315 312 313 313 312 311 311 313 314 315 317 318 317 315 313 311 310 309 308 306 305 306 307 309 310 310 309 308 307 306 306 308 311 315 317 318 320 322 322 323 323 324 324 325 326 326 326 326 326 326 326 326 327 328 328 329 329 328 328 327 326 325 325 325 324 322 321 320 319 317 316 315 314 312 312 312 312 311
313 314 316 315 313 314 316 316 315 316 318 317 318 319 318 314 312 312 314 313 313 314 313 314 312 311 313 315 315 318 319 318 316 314 312 311 308 307 305 305 306 307 309 311 311 310 310 309 308 307 307 308 311 314 317 319 321 322 322 323 323 324 324 325 325 326 326 326 326 326 326 327 328 328 328 328 328 327 327 326 325 325 324 323 321 320 319 318 316 315 313 311 310 310 310 309 309
315 315 316 317 314 313 317 319 313 312 314 314 314 317 318 314 310 311 312 312 312 311 310 311 310 309 311 316 317 318 317 316 314 312 312 312 309 307 306 305 306 307 308 310 312 312 312 311 310 309 308 308 309 312 315 317 318 320 321 322 322 323 323 324 324 325 325 325 325 325 326 327 327 328 328 328 328 327 326 325 325 325 324 322 321 320 319 317 316 314 311 309 309 309 308 307 307
Wind_Speed
6 5 5 5 7 6 2 2 1 1 1 1 2 0 3 1 2 2 5 5 3 4 2 1 6 7 3 2 1 3 5 1 3 2 1 4 8 13 9 9 13 13 15 13 11 11 12 14 12 12 12 9 9 10 9 10 13 16 17 16 14 14 14 14 13 13 13 13 14 14 14 14 15 16 16 16 17 17 17 17 18 18 18 18 18 18 18 18 18 18 18 19 19 19 19 18 18
6 5 6 6 7 6 0 1 2 1 1 2 2 1 3 3 2 5 7 5 2 4 4 3 6 4 2 3 1 2 3 5 6 3 3 6 12 11 8 11 12 13 14 12 11 11 12 13 13 13 11 10 10 11 11 11 13 15 16 17 16 15 14 13 12 13 13 13 13 13 14 14 15 15 16 16 16 17 17 17 18 18 17 18 18 18 18 18 17 17 17 18 18 18 18 18 18
7 6 5 5 3 2 1 2 1 1 1 2 2 2 3 4 5 4 4 3 5 6 6 5 5 2 1 2 1 1 3 4 3 4 5 10 11 9 10 11 11 13 14 12 12 11 12 13 14 14 12 11 11 12 13 13 13 14 15 16 15 15 14 13 12 13 14 13 13 13 14 14 14 15 15 16 16 17 17 17 17 17 17 17 17 17 17 17 17 17 16 16 16 17 18 18 18
7 8 4 4 1 0 1 0 1 2 1 1 2 4 4 5 5 5 5 6 7 5 6 6 5 1 4 2 1 1 3 4 4 5 7 10 8 10 12 11 12 13 12 11 12 11 12 14 14 14 13 12 12 13 13 13 13 13 13 13 14 13 13 12 12 12 13 13 13 13 13 14 15 15 15 16 16 16 16 15 17 18 18 17 16 17 17 16 16 16 16 16 15 16 17 17 17
5 10 7 2 2 1 1 1 1 2 2 1 2 3 5 5 5 6 7 7 6 2 4 5 3 2 2 2 3 1 4 4 5 6 9 9 8 12 12 12 12 12 12 11 11 11 12 14 14 14 14 12 11 12 13 13 12 12 11 11 13 12 12 12 11 12 12 13 13 13 13 14 15 14 14 15 16 16 15 15 16 17 18 17 16 15 15 16 16 16 15 15 15 16 17 16 16
2 5 9 5 0 1 1 1 1 1 3 1 2 3 3 5 6 9 9 6 3 2 1 3 1 2 2 2 2 1 4 3 6 7 10 10 10 13 12 13 11 11 12 11 11 11 13 15 15 15 14 13 12 12 14 13 11 11 10 11 12 11 11 11 11 11 12 13 14 14 13 13 15 14 14 15 16 15 15 15 16 17 17 16 15 15 15 16 16 15 15 14 15 15 16 15 15
2 2 3 4 2 1 2 0 0 1 2 1 2 3 2 6 7 10 10 6 3 1 1 2 1 2 2 2 2 3 2 1 5 8 10 11 13 13 12 12 11 12 11 11 10 10 14 15 15 15 13 14 13 12 12 12 11 11 10 11 12 10 9 10 11 11 11 12 13 13 13 13 15 15 15 15 15 14 15 15 15 15 15 15 15 15 16 16 16 15 14 15 15 15 14 14 14
4 2 1 1 1 1 1 0 0 1 1 1 2 2 2 5 8 10 11 6 3 2 2 2 3 4 2 1 2 4 1 0 4 8 11 13 15 14 12 12 12 12 11 11 10 11 15 15 15 14 13 13 13 12 10 11 10 8 8 11 12 10 9 10 12 11 11 12 12 12 13 13 13 14 15 15 14 14 14 14 14 14 14 15 15 15 15 15 15 14 14 14 14 14 13 13 14
5 2 1 2 1 0 0 0 0 1 0 2 2 1 1 4 7 9 11 4 1 3 3 4 3 3 3 3 1 3 2 2 7 11 13 13 15 14 13 13 12 12 11 11 10 11 14 15 15 14 13 12 12 13 10 9 9 6 6 9 10 9 10 12 12 11 10 10 11 11 12 12 12 13 14 14 14 13 14 14 14 14 14 15 15 15 14 14 13 13 13 13 13 13 13 14 14
3 3 1 0 1 1 1 0 1 1 1 1 2 3 2 6 8 7 10 5 2 4 3 3 2 2 3 4 2 3 3 5 10 13 14 14 15 13 12 13 13 13 12 11 10 10 13 15 15 14 13 12 12 13 11 9 10 7 5 7 7 9 11 12 11 10 9 10 10 10 11 11 12 12 13 13 13 13 13 13 13 13 14 14 14 14 13 13 13 13 13 13 13 14 14 14 15
1 2 0 1 2 2 1 0 0 1 1 2 3 3 3 8 9 6 6 4 2 3 5 2 3 4 3 1 1 3 3 7 13 15 15 15 14 12 11 13 14 13 12 11 10 10 12 14 15 14 13 13 12 12 10 10 11 7 5 6 7 9 10 11 10 8 9 9 10 10 11 11 11 12 12 12 12 13 13 13 13 13 13 13 12 12 12 11 12 13 13 13 14 14 14 15 16
1 1 2 2 2 1 1 1 1 2 2 2 1 3 4 9 10 8 8 5 4 4 6 6 2 4 4 1 2 4 5 9 13 16 16 15 14 12 11 13 14 13 11 11 11 10 11 12 14 14 14 13 12 10 9 11 13 8 7 9 8 10 10 11 9 7 7 9 9 10 11 11 11 12 12 13 12 12 12 12 12 12 12 12 12 11 10 10 11 12 12 13 13 13 14 14 15
1 1 2 2 0 0 0 1 1 2 2 1 2 2 5 10 9 8 9 5 6 6 5 6 3 2 2 1 2 4 7 11 14 16 16 15 13 12 12 12 13 13 11 11 11 10 11 12 12 13 15 13 11 10 8 11 13 10 9 11 10 11 10 9 9 7 8 9 9 9 10 10 10 11 12 13 13 12 12 11 11 11 11 11 11 9 9 10 11 11 11 12 12 12 12 12 13
2 1 2 1 0 0 1 1 0 2 0 3 3 3 5 6 3 4 7 7 7 4 2 4 5 2 1 2 3 5 9 13 15 16 16 14 12 12 13 13 13 13 12 12 11 11 11 12 11 12 14 12 11 11 9 9 12 12 10 9 10 11 9 8 9 9 8 8 8 7 8 8 9 10 11 12 12 13 12 11 10 10 9 9 9 8 8 9 10 10 10 10 11 11 11 11 12
1 0 1 1 1 1 2 1 1 1 2 4 2 3 5 2 2 3 5 6 4 4 3 3 3 1 2 3 2 4 12 16 16 16 16 14 12 11 12 12 12 12 12 12 11 11 11 12 12 12 13 12 11 11 10 9 10 13 12 10 10 10 8 7 10 10 8 7 6 6 6 6 7 8 9 10 11 12 12 11 10 9 8 8 8 7 7 7 8 8 9 9 9 9 9 10 10
1 0 1 2 2 2 2 1 1 2 2 4 1 1 5 3 1 3 1 3 3 4 2 3 3 1 0 2 2 3 14 18 16 17 16 14 12 10 11 10 10 10 11 12 12 12 11 12 13 13 11 11 12 10 10 10 10 12 14 13 11 10 9 8 10 11 9 7 6 5 5 6 6 7 8 9 10 11 10 10 10 9 7 6 7 7 6 6 6 6 7 7 7 7 7 8 8
1 1 2 2 3 2 2 3 2 1 2 3 3 4 7 4 1 1 1 2 1 4 3 1 2 2 1 2 3 4 16 18 17 18 16 15 13 11 10 9 9 10 11 12 12 12 12 12 13 13 12 12 11 10 9 10 10 10 14 15 12 11 10 9 10 11 10 7 6 5 5 6 6 6 7 7 8 9 9 8 8 8 7 6 6 6 5 4 4 4 4 4 5 5 6 6 6
1 1 2 3 2 2 1 1 0 0 1 2 2 4 7 4 3 2 2 4 1 3 4 2 2 3 2 1 2 9 17 18 18 19 17 15 14 12 11 11 11 10 12 12 12 13 13 13 14 14 13 13 12 11 10 10 11 10 12 14 13 12 11 10 10 11 11 9 7 6 6 7 7 6 6 6 6 6 7 6 5 6 6 6 5 5 4 3 2 2 2 3 3 4 4 4 5
1 1 2 3 1 1 1 1 0 1 2 2 1 3 5 4 2 3 4 5 4 5 6 4 5 6 4 1 5 14 18 18 20 20 18 17 16 15 12 11 12 11 12 12 12 14 14 13 14 15 14 14 13 12 11 10 10 10 11 12 13 13 13 11 10 12 11 9 8 7 6 7 6 6 6 7 6 6 6 6 5 5 5 4 5 4 3 2 1 1 2 2 3 3 3 3 3
0 1 4 1 2 1 0 0 0 2 3 3 1 2 5 4 2 3 4 4 6 9 8 7 9 10 8 6 10 17 19 20 21 20 19 18 17 17 14 12 13 12 12 12 12 14 15 14 15 15 14 15 14 12 12 11 10 11 11 11 12 13 13 11 11 12 11 10 9 7 7 7 6 6 7 7 6 5 5 5 4 4 4 3 4 4 4 3 3 3 3 3 3 3 3 2 3
2 2 3 3 3 2 3 2 1 1 3 4 1 2 3 3 3 4 4 5 7 11 10 10 11 11 11 9 13 19 20 22 23 21 21 20 19 18 15 13 13 12 12 12 11 13 15 14 15 15 15 15 14 13 12 11 11 11 11 11 12 12 12 11 12 12 12 12 11 8 8 8 7 6 6 6 5 4 4 4 3 3 3 2 3 4 4 4 3 3 3 4 3 3 3 3 3
3 2 1 4 3 2 4 1 1 1 2 2 2 1 1 3 4 7 8 9 6 3 5 9 10 9 13 13 15 19 20 23 23 23 23 22 21 20 18 14 12 11 12 12 12 14 15 15 15 14 15 16 15 14 12 12 12 11 11 11 12 12 13 13 14 14 13 14 12 10 10 10 9 7 6 6 5 4 4 3 3 4 3 3 4 4 5 5 3 3 4 4 3 3 3 5 5
3 2 2 3 2 1 3 1 0 1 3 3 2 1 1 3 5 6 10 14 5 4 2 4 5 7 13 15 17 19 20 23 25 25 26 25 24 23 21 18 15 13 13 13 12 14 16 15 15 14 14 15 16 15 13 13 12 11 11 12 12 12 14 15 15 14 14 14 14 13 12 11 11 9 7 7 6 5 5 4 4 5 5 4 5 5 5 6 6 6 5 4 3 3 4 5 6
5 4 4 4 2 1 2 3 1 2 5 3 2 1 3 6 4 2 8 16 8 3 2 1 2 7 13 14 16 19 22 25 27 27 26 25 25 24 21 19 17 15 14 14 13 13 17 17 15 15 15 15 15 15 14 13 11 11 11 12 14 13 14 15 15 16 16 15 15 14 13 13 12 11 9 8 8 7 6 6 5 6 6 6 6 6 6 6 6 6 6 5 4 4 5 5 6
7 5 4 3 1 1 2 4 1 1 4 2 3 5 4 5 1 1 10 14 8 3 2 3 5 9 12 13 15 17 20 24 25 24 24 23 23 22 21 20 18 17 16 16 14 13 17 19 17 17 16 15 15 15 14 13 11 11 11 12 15 14 14 16 16 16 16 15 16 15 14 14 13 13 12 11 10 9 8 8 7 7 6 7 7 6 6 6 6 6 6 5 5 5 5 5 4
6 4 4 3 1 3 4 3 0 1 3 1 4 7 3 2 1 5 12 9 5 6 4 5 7 9 11 11 13 16 18 21 24 24 24 23 21 22 23 22 20 20 19 17 16 15 16 19 20 19 18 17 16 15 15 13 12 12 12 14 16 15 16 16 16 17 16 16 17 16 16 15 15 14 13 12 11 10 8 8 7 6 6 5 5 5 5 5 5 5 5 5 5 4 4 4 4
2 5 2 2 2 3 2 4 3 3 3 3 6 7 1 1 2 6 5 1 4 7 5 6 8 10 11 10 12 15 16 20 23 22 23 22 22 24 24 23 22 21 20 19 19 16 16 19 22 23 21 20 18 16 16 15 14 15 16 17 18 17 17 16 16 17 17 17 17 16 16 16 16 14 14 13 11 10 8 7 6 6 6 5 5 5 5 5 5 5 5 4 4 4 4 5 4
4 5 1 3 4 5 5 8 6 2 3 4 5 7 3 2 4 6 0 3 5 7 6 6 8 9 10 11 11 12 14 16 19 20 22 24 25 25 25 25 24 22 21 21 20 17 17 19 22 24 23 23 21 19 18 18 17 18 19 19 19 19 18 17 17 18 18 17 17 16 16 16 16 15 15 14 12 11 9 8 7 6 6 6 6 6 5 5 5 5 5 4 3 3 4 5 4
5 4 1 2 4 7 8 10 5 2 3 4 3 8 7 7 8 7 1 3 5 6 6 6 8 7 7 10 9 10 12 13 16 19 23 24 23 25 26 26 25 24 23 22 20 19 18 17 19 22 24 25 24 22 21 20 21 21 21 21 21 21 20 19 19 19 19 18 18 16 16 16 16 15 16 15 13 11 9 8 8 7 7 7 7 7 6 6 5 5 5 4 3 4 6 6 6
5 3 2 1 4 6 5 6 5 6 4 5 3 8 8 6 9 7 2 4 5 5 7 7 7 6 6 7 7 9 12 14 17 21 21 21 22 23 25 26 26 25 23 21 22 22 19 17 17 19 22 24 24 25 24 22 23 23 23 22 22 22 21 21 20 20 20 20 19 17 17 17 16 16 16 15 14 11 8 8 8 8 8 8 8 8 7 6 6 6 5 5 6 8 9 10 10
4 3 2 1 4 2 3 3 6 8 3 6 6 9 8 5 5 3 3 5 7 7 9 8 7 6 6 7 8 9 11 16 19 20 19 19 20 21 23 25 26 26 23 22 23 24 22 19 19 20 21 23 23 26 27 26 26 26 26 24 23 22 22 23 22 22 21 21 20 19 19 18 17 17 17 15 15 12 9 9 9 8 8 9 9 9 8 8 7 7 6 8 10 12 11 11 11
2 3 3 2 5 3 3 3 4 5 1 5 9 7 7 7 5 1 1 5 8 10 10 8 8 7 6 7 8 9 10 15 18 18 18 19 20 19 21 24 26 27 26 24 23 24 24 22 21 21 22 23 24 27 28 27 27 27 27 26 26 24 23 24 24 24 24 23 22 21 20 20 19 19 18 17 17 15 12 11 11 9 9 9 10 10 10 10 9 9 9 11 12 11 10 10 10
1 4 4 4 6 5 1 3 1 2 0 5 10 6 4 4 3 1 1 5 8 10 10 9 8 7 7 7 7 8 8 11 14 17 18 19 21 21 21 23 25 27 27 26 24 25 26 24 23 22 21 22 24 25 27 28 26 24 26 27 27 26 24 25 26 25 25 24 24 24 22 21 21 20 19 19 18 17 15 14 12 11 10 10 11 10 10 10 11 12 12 13 13 12 11 11 10
2 3 5 4 6 4 3 3 3 1 3 6 8 8 10 8 6 3 2 4 7 9 10 9 7 7 7 7 7 8 8 9 12 17 20 22 22 23 22 22 24 25 26 27 27 26 26 25 24 24 22 22 23 23 25 28 27 25 26 27 27 28 27 27 27 27 27 27 26 25 24 22 22 21 21 20 19 18 16 14 14 13 12 12 12 11 11 12 13 13 12 12 12 12 12 10 9
6 6 6 5 5 5 5 3 2 1 3 6 7 8 14 13 11 11 4 4 7 11 9 7 7 8 8 7 8 9 9 11 13 16 20 23 23 22 22 22 23 25 26 26 27 26 26 26 25 26 25 23 23 24 24 26 26 25 24 24 25 28 29 28 26 25 25 27 28 27 25 23 23 22 21 21 20 19 17 16 16 15 15 14 14 14 14 13 13 13 12 11 11 12 12 11 11
11 8 7 6 6 6 5 2 2 2 2 7 9 10 13 13 11 13 8 5 7 12 9 7 7 8 7 8 8 9 10 12 13 15 18 20 21 21 21 21 22 25 26 26 27 27 27 27 25 25 27 25 24 24 24 24 24 24 24 23 24 27 31 31 28 25 22 21 24 28 27 25 24 23 22 22 21 21 20 19 19 19 17 16 16 17 17 15 12 12 11 11 11 12 13 13 13
10 7 7 7 6 5 2 2 2 1 4 7 7 9 12 13 12 12 10 5 7 12 11 9 9 8 7 8 9 10 11 11 8 12 15 17 19 19 19 20 22 25 26 26 28 29 29 28 26 25 25 25 27 27 26 26 26 26 26 26 26 27 30 32 32 30 28 23 21 24 26 26 25 25 24 23 22 22 21 21 21 21 20 19 19 19 18 16 14 12 12 12 12 12 12 10 10
8 7 7 7 6 5 2 1 1 2 3 6 5 8 13 14 13 12 10 9 11 12 12 12 12 10 8 8 10 10 10 7 5 10 14 16 18 19 21 22 24 26 26 27 29 29 29 28 27 27 26 26 28 29 29 29 29 29 28 27 28 27 27 31 34 34 33 31 27 25 26 26 26 27 26 25 24 23 22 22 21 21 22 22 21 20 19 19 19 17 13 12 12 12 12 9 7
7 6 5 6 4 3 3 3 1 1 2 7 6 8 14 15 14 14 12 12 12 12 13 13 13 11 9 9 10 9 9 8 8 12 14 15 18 19 21 24 26 26 26 27 29 29 29 28 28 28 28 27 28 30 31 31 31 31 28 24 24 24 24 29 34 35 34 33 32 30 29 28 28 29 29 28 26 24 24 24 22 22 24 23 21 19 19 19 21 19 14 13 13 11 10 8 7
4 5 6 5 2 2 4 3 2 2 2 6 8 9 12 14 14 15 14 13 12 11 12 13 12 12 12 10 9 8 10 10 10 12 12 14 16 18 22 24 25 26 26 28 29 29 29 29 30 29 29 28 27 29 32 32 29 29 28 23 22 24 25 28 31 34 34 33 34 34 33 33 32 31 30 29 28 27 27 26 24 22 21 21 19 17 17 17 19 19 16 15 13 11 10 8 8
4 5 7 5 3 4 3 1 1 3 3 2 8 10 9 10 12 13 10 9 10 10 9 11 10 10 11 11 9 8 9 10 10 11 11 13 16 19 23 24 25 25 26 28 30 30 30 31 32 32 30 29 28 27 30 32 28 27 28 26 25 27 27 27 27 30 32 33 34 34 35 35 34 32 31 29 29 28 28 28 26 22 19 19 18 16 17 17 18 17 17 16 13 12 12 10 9
4 6 9 7 5 6 2 1 3 5 4 1 4 8 5 2 7 9 5 5 8 7 7 9 8 8 10 10 10 10 9 9 10 11 11 10 15 18 20 22 23 26 31 33 33 33 33 33 34 33 32 31 31 28 27 28 28 27 29 29 28 29 30 29 30 31 31 33 34 34 34 34 33 32 31 28 28 28 28 29 29 26 25 23 17 14 16 17 17 17 16 15 14 13 12 11 11
3 5 8 7 6 4 3 2 3 4 4 1 1 6 6 4 8 10 8 9 10 8 9 9 8 7 9 9 10 10 10 10 9 11 12 11 14 16 18 22 25 31 38 38 34 35 38 39 37 36 36 35 34 32 27 26 28 28 30 33 33 32 32 32 34 35 33 33 34 34 33 33 32 31 31 31 31 29 27 27 28 29 30 28 21 16 16 16 15 16 15 15 16 15 13 13 13
3 5 9 9 7 6 5 4 3 3 4 3 3 3 8 9 9 9 9 12 14 13 13 11 9 10 10 10 10 10 11 11 9 10 12 14 15 16 19 25 30 37 40 35 35 40 42 41 39 37 37 37 37 35 31 28 28 28 30 34 36 35 34 32 32 34 33 33 34 34 34 33 31 30 30 31 32 32 30 28 28 28 28 28 26 21 18 18 18 17 17 17 19 18 17 17 14
2 5 9 8 6 5 4 2 2 1 4 6 4 3 7 9 4 4 5 10 15 14 13 12 11 12 11 10 10 10 11 11 10 10 12 13 15 17 19 21 26 34 36 35 38 40 37 35 33 31 32 36 39 36 33 32 30 28 30 32 34 36 35 33 30 29 31 32 33 34 34 33 32 29 29 28 30 31 31 31 30 29 26 25 26 23 20 21 21 21 21 20 20 20 19 17 12
3 6 8 7 4 4 3 1 1 1 3 9 5 6 6 9 4 5 4 7 12 10 8 10 11 11 10 8 9 9 8 7 8 9 10 11 12 14 16 17 22 30 35 36 38 36 34 34 31 30 32 36 38 34 34 37 34 29 30 32 33 34 34 33 31 29 28 30 32 33 33 32 32 31 30 29 30 31 30 30 30 28 28 27 25 24 23 22 22 23 22 20 19 19 18 16 11
9 8 7 8 4 3 2 1 2 1 5 7 6 10 7 7 4 6 3 2 5 6 6 8 10 11 10 7 6 6 5 4 5 7 9 11 12 13 16 19 23 28 31 31 33 34 35 36 34 34 36 35 34 33 33 35 34 31 31 33 33 34 32 32 33 33 31 30 31 32 32 32 33 32 31 30 31 31 31 31 30 28 30 29 26 27 26 23 22 22 20 17 16 16 16 16 13
9 6 6 6 3 2 1 1 1 5 6 1 0 6 9 9 4 2 3 4 4 5 6 7 9 10 9 4 2 3 3 4 5 5 7 8 9 11 14 17 19 22 24 26 29 32 33 34 33 33 35 34 34 34 33 32 33 32 32 33 33 33 31 31 34 34 33 33 33 31 31 32 33 32 31 31 31 31 32 32 31 30 30 28 27 28 25 22 22 20 18 17 17 18 17 16 14
5 5 7 6 2 2 3 3 3 6 4 1 2 1 7 11 7 6 11 12 8 7 6 8 9 10 8 4 2 2 4 5 5 5 5 5 5 7 9 12 13 16 21 24 27 29 31 33 31 30 33 37 36 35 33 33 33 33 33 33 33 33 32 32 33 32 31 33 34 33 32 33 33 32 32 33 32 31 32 33 32 32 32 30 29 26 23 23 23 21 19 19 20 19 18 16 15
6 7 8 6 5 5 8 6 4 5 3 2 1 1 5 10 6 6 12 11 7 5 6 8 9 9 8 6 6 6 6 7 6 5 5 5 5 6 7 8 10 12 17 21 25 27 30 32 32 32 35 36 35 34 34 33 33 35 36 34 33 32 31 32 32 29 28 28 30 32 33 35 35 35 35 34 32 31 31 32 32 33 33 31 29 27 25 24 23 21 21 21 21 20 18 17 16
6 6 4 3 4 5 7 7 5 3 1 2 3 2 5 5 2 2 6 6 7 7 6 6 6 6 6 6 7 8 7 6 5 5 6 6 6 7 8 9 11 13 15 18 22 25 28 30 31 34 36 34 32 33 33 32 33 34 34 32 31 30 30 30 30 29 26 24 27 29 32 36 36 36 37 34 32 30 29 30 31 31 30 30 29 28 26 25 24 23 23 22 21 19 18 17 17
4 2 1 3 2 2 2 1 1 0 0 3 5 4 5 3 6 10 9 7 9 8 4 3 5 4 3 5 6 6 6 5 4 4 5 6 6 7 8 9 12 15 16 18 21 23 25 27 27 29 32 30 29 31 33 31 31 30 30 30 29 29 29 27 28 29 25 23 26 29 33 37 38 37 36 34 32 30 29 29 30 29 29 29 29 28 26 26 26 25 23 22 21 20 18 18 19
5 4 5 2 2 2 2 1 2 1 4 4 4 6 6 5 9 10 6 6 8 7 5 3 3 3 3 4 3 4 5 5 4 5 5 6 6 7 8 10 14 16 16 18 19 21 22 24 24 24 26 25 25 27 30 30 28 28 29 29 30 30 29 28 27 27 27 24 24 28 32 36 38 37 35 34 33 30 29 29 29 28 28 28 28 27 26 26 25 23 23 22 21 20 19 18 18
6 7 7 4 2 2 1 3 1 2 6 3 3 8 7 5 5 2 2 5 7 6 4 4 1 3 3 3 3 3 4 4 5 5 4 5 5 6 8 11 14 14 14 16 16 17 19 21 23 22 22 24 24 25 26 26 27 29 29 29 30 31 30 30 29 28 28 27 25 28 33 35 37 36 35 34 32 31 30 29 29 28 27 28 28 28 28 26 24 23 23 21 20 19 19 20 20
1 4 8 6 3 4 4 3 3 4 6 4 4 6 7 8 6 3 6 8 8 6 2 5 2 2 2 3 3 3 4 4 4 5 4 4 4 6 8 11 13 13 13 14 14 15 16 18 21 22 23 24 25 26 27 25 24 27 29 29 29 30 30 30 30 28 27 26 28 32 34 35 36 35 34 34 32 32 31 29 29 29 28 29 29 28 27 25 24 23 22 21 20 20 22 23 22
2 2 7 3 2 4 5 4 2 3 6 4 3 2 4 7 7 8 10 7 6 6 2 4 4 2 2 2 3 3 4 3 4 4 4 4 5 7 9 11 12 12 12 13 13 14 15 16 18 21 24 25 25 26 27 25 22 24 28 29 28 28 29 30 28 27 25 26 30 33 34 34 35 34 33 33 32 32 32 31 31 30 30 31 29 27 25 24 24 23 22 22 23 24 25 24 22
6 7 9 6 2 1 2 3 2 2 4 4 3 4 5 3 4 8 10 7 5 5 3 1 4 2 3 3 3 3 3 4 4 4 4 5 6 8 11 12 12 11 11 11 11 13 14 15 16 18 21 24 25 26 24 22 20 21 25 28 29 28 29 30 30 29 28 29 31 33 34 34 34 34 34 33 33 33 33 34 33 33 33 32 30 28 27 26 26 24 23 24 26 26 26 24 23
9 8 10 11 8 5 5 6 3 0 2 2 2 6 6 2 4 6 8 5 3 1 2 2 3 5 6 4 4 3 3 4 5 4 4 5 6 7 10 13 12 10 10 10 11 12 14 15 16 16 18 21 23 25 23 19 19 20 22 25 28 29 29 30 31 31 32 32 32 32 34 34 34 34 34 34 34 34 35 36 35 35 34 32 30 29 28 27 26 24 24 25 27 27 26 25 25
Wind_Direction
347 341 340 336 344 317 262 345 274 93 308 111 80 144 126 97 8 182 159 146 155 144 141 77 152 142 116 332 331 32 19 29 13 337 77 74 131 140 136 136 136 135 136 135 136 132 134 132 131 132 120 116 121 125 120 113 121 120 113 108 107 105 98 95 97 97 96 95 94 92 93 95 96 97 96 94 92 91 91 93 93 92 90 88 86 85 85 84 84 85 87 89 88 87 84 83 83
346 340 340 335 343 330 236 298 293 100 264 119 111 9 101 150 197 189 166 153 90 107 138 140 149 142 44 356 310 133 75 36 19 46 81 120 136 138 143 142 140 138 137 134 136 135 135 134 128 124 121 117 114 126 118 105 113 117 114 107 102 100 99 100 100 100 98 94 93 91 92 96 99 100 99 96 93 93 92 91 92 92 90 87 86 85 85 84 84 84 85 88 87 84 83 83 84
355 347 330 330 352 1 134 244 293 29 318 73 103 107 128 183 185 164 139 102 74 110 134 133 150 146 282 211 210 264 87 61 80 99 108 141 144 148 152 144 142 140 138 135 137 137 137 136 130 129 131 121 108 116 113 103 103 105 105 101 101 97 96 100 99 100 99 96 96 97 99 99 101 103 100 97 92 92 92 91 93 92 89 87 87 87 85 84 84 85 84 86 87 83 82 84 84
15 12 344 309 317 91 274 311 18 320 8 50 66 124 187 200 163 120 93 97 103 130 139 149 161 84 293 250 28 348 88 90 121 119 133 151 146 149 153 150 144 141 139 136 140 137 140 141 136 137 131 117 105 108 111 106 103 103 103 100 101 98 98 103 100 99 99 99 103 105 104 104 105 106 104 101 96 95 94 96 101 100 97 93 90 87 85 85 85 86 86 86 86 84 83 83 82
24 26 30 318 283 20 330 63 91 303 42 42 28 114 200 197 148 121 109 122 120 119 135 175 175 86 291 18 359 309 97 103 136 140 147 151 140 147 155 152 145 143 142 138 142 138 144 144 136 137 128 117 109 106 109 109 105 105 106 104 100 101 105 108 107 106 110 113 113 111 108 108 108 109 108 104 100 99 97 96 99 98 97 94 90 87 85 86 86 87 87 87 86 86 85 82 78
347 20 44 56 91 11 240 189 124 73 57 355 13 68 189 180 149 131 130 134 133 349 86 215 204 126 169 97 343 28 79 107 144 154 154 154 151 152 155 152 147 145 143 142 145 141 148 145 134 137 132 124 118 110 111 111 108 105 102 104 106 109 112 116 119 117 122 122 116 112 109 108 106 107 107 102 101 99 97 95 92 90 90 90 88 86 85 85 86 86 87 88 86 86 85 80 75
339 309 41 64 112 288 261 150 49 90 84 323 1 40 133 162 148 139 148 156 171 250 183 235 234 178 136 112 184 113 70 81 142 161 156 153 153 154 155 153 150 146 145 145 145 146 152 147 137 139 141 136 126 116 114 113 112 109 100 105 115 119 123 125 119 110 110 110 106 107 105 104 103 106 107 103 103 100 96 94 90 89 87 86 86 86 87 85 86 86 87 90 88 86 81 76 70
19 1 309 302 127 3 295 81 267 35 80 269 313 1 62 150 158 155 161 166 171 170 169 181 229 230 129 119 181 126 154 195 147 156 151 153 154 156 156 156 154 150 148 147 147 151 156 151 142 139 144 147 137 122 115 117 117 118 108 111 122 126 130 122 109 102 100 100 101 104 105 105 106 107 109 106 103 101 98 95 92 91 89 88 88 88 89 87 87 87 87 89 86 82 77 72 67
31 18 248 272 265 70 238 277 212 325 239 220 238 236 1 166 172 167 167 164 136 163 167 154 218 258 137 155 102 121 174 154 150 151 152 156 158 158 156 160 159 154 152 150 149 153 159 154 147 146 145 147 147 139 130 126 122 129 125 119 127 125 118 111 107 106 104 105 104 103 108 110 109 109 112 111 106 103 100 98 95 93 93 91 90 89 88 87 87 87 87 86 82 78 74 72 68
36 22 236 110 252 250 222 229 121 239 226 228 250 223 188 174 178 175 173 163 135 163 139 112 241 255 145 158 103 112 151 148 156 155 157 159 160 163 159 162 162 158 156 155 153 155 163 160 154 156 151 145 147 148 145 137 131 141 137 121 133 131 118 113 114 116 113 113 114 112 113 114 112 112 115 115 109 106 103 100 98 96 96 95 94 93 92 90 88 88 87 83 79 77 75 73 68
214 57 249 209 230 254 237 256 71 288 269 268 259 218 187 173 171 169 176 154 140 154 135 158 225 182 158 174 124 100 127 156 163 159 160 162 163 165 161 163 164 161 160 161 160 158 164 165 162 162 159 153 152 153 156 150 141 149 136 115 132 138 127 123 125 126 124 121 121 119 116 117 115 116 117 116 114 110 107 103 99 98 99 97 96 96 96 93 90 89 85 81 77 75 75 72 66
238 100 241 227 232 279 328 320 323 318 293 266 179 164 175 172 169 175 187 174 165 165 162 187 187 154 167 176 136 122 151 166 165 163 161 163 165 167 165 164 165 163 166 167 163 163 165 169 170 169 167 163 161 157 156 151 149 155 139 129 134 137 136 133 132 137 137 128 124 124 121 121 120 121 122 120 119 115 111 108 102 99 98 98 96 95 97 94 89 88 85 81 77 75 74 71 67
4 80 247 221 236 351 325 297 321 303 272 53 62 112 167 174 180 184 179 167 169 176 173 171 149 189 210 107 125 144 171 172 165 165 163 165 166 167 167 165 166 164 171 173 168 171 169 168 172 177 175 169 167 164 156 150 156 165 147 142 146 145 148 144 143 152 150 139 133 134 133 132 131 131 130 128 128 124 119 115 107 101 101 102 100 97 100 96 91 88 85 81 79 78 76 74 70
349 29 277 202 83 175 223 266 5 272 109 49 44 123 176 183 202 183 169 182 179 166 125 140 157 198 226 157 176 175 176 173 168 166 165 167 164 168 169 166 168 167 174 177 177 180 176 171 171 180 180 171 168 169 169 163 164 174 162 150 156 158 160 158 160 167 163 151 140 140 145 143 139 136 138 136 135 133 128 123 115 110 110 110 107 101 101 95 89 86 81 80 78 77 75 74 70
341 91 294 164 169 201 214 285 35 266 44 30 27 132 194 209 345 192 188 208 163 101 96 145 188 209 193 190 172 167 170 168 169 166 165 166 164 168 168 168 170 171 177 178 182 186 183 178 175 180 183 179 174 170 176 180 178 180 178 165 167 172 173 171 171 177 176 164 151 150 157 152 143 141 145 143 139 138 134 131 126 121 116 115 117 105 100 94 84 82 78 76 75 74 72 72 70
353 169 252 203 203 212 190 179 178 239 39 37 67 131 203 181 353 213 265 304 115 116 171 171 191 293 210 168 40 124 159 163 167 165 164 165 165 167 167 171 173 174 179 179 184 189 187 184 182 181 184 189 185 179 178 183 189 188 188 181 178 182 180 179 178 183 185 176 166 159 156 144 139 138 144 147 145 143 139 139 138 135 125 119 121 104 96 94 82 75 72 71 70 71 70 70 70
244 239 229 222 212 201 175 185 194 196 50 55 134 183 210 181 158 266 1 291 142 144 202 154 158 289 338 100 30 132 154 159 165 163 164 167 168 170 172 178 178 178 182 185 188 188 190 189 188 185 186 193 191 190 185 189 197 193 192 191 188 187 183 182 182 187 189 185 177 161 149 139 135 134 139 146 144 142 142 145 147 146 139 130 129 117 104 94 83 66 58 59 58 61 63 62 63
241 228 219 230 208 177 156 176 185 49 34 39 102 192 222 209 168 172 185 207 160 156 191 165 179 231 258 10 63 152 155 160 167 167 168 171 175 176 179 184 185 185 184 189 192 189 190 192 192 190 187 191 194 197 196 199 200 191 191 194 194 193 189 187 186 190 191 193 189 166 153 150 144 143 143 147 146 146 152 159 165 161 157 148 144 141 121 99 80 43 24 25 33 41 47 48 49
275 157 227 233 147 96 53 33 76 290 343 17 54 181 216 232 153 166 219 205 180 206 201 186 213 207 203 193 147 157 162 166 172 175 176 178 183 185 185 185 188 190 187 190 194 190 190 193 196 194 189 191 196 200 202 201 196 191 190 194 198 198 197 193 187 190 190 191 191 172 165 166 156 157 164 162 158 163 168 175 175 169 169 168 164 165 165 165 213 283 308 331 348 7 27 32 33
207 198 232 203 93 95 134 308 234 277 315 332 29 143 205 215 136 168 233 227 200 223 214 188 216 207 178 156 156 165 169 172 177 182 185 187 190 192 192 189 190 194 192 191 192 192 192 193 196 198 195 193 196 200 202 199 193 194 194 196 198 198 201 196 191 194 190 192 192 179 179 182 171 170 178 173 167 168 169 170 167 160 163 174 179 189 207 210 231 258 273 295 315 329 346 1 7
163 209 234 120 130 171 145 179 303 280 287 314 342 146 211 182 159 196 216 234 227 232 224 209 220 199 167 157 165 173 173 176 182 187 190 193 196 198 201 196 194 195 193 193 192 193 193 193 194 197 199 198 198 200 201 199 194 195 197 199 198 197 200 196 195 198 196 199 195 187 194 197 190 184 183 178 173 173 169 164 163 162 170 181 186 201 216 217 229 249 264 275 290 305 312 319 328
181 191 53 111 162 172 128 165 301 286 264 276 256 226 178 129 184 208 211 235 242 250 236 228 232 189 162 164 168 174 179 183 186 191 194 196 198 201 205 202 199 196 193 195 196 195 194 194 194 193 199 202 201 203 203 202 199 197 198 200 201 202 203 202 202 200 201 203 200 199 204 206 204 199 191 187 184 181 179 180 182 187 198 207 202 210 218 217 222 234 249 260 273 290 300 304 307
228 190 108 149 191 135 110 47 229 240 257 243 256 313 128 179 220 205 215 238 244 47 339 263 253 179 159 160 165 175 185 189 192 196 197 197 198 200 202 203 200 199 196 200 201 199 196 195 195 194 197 201 204 206 206 206 204 200 200 201 202 205 207 208 207 204 205 204 204 206 207 211 212 205 198 197 196 191 190 193 199 204 210 221 225 224 222 223 227 233 237 243 263 284 297 302 305
252 214 142 170 223 146 76 358 297 244 254 268 334 305 217 227 244 165 221 240 233 78 23 290 218 158 153 160 170 181 187 192 197 199 200 200 201 201 201 202 201 201 199 203 204 201 202 199 196 196 197 199 202 206 208 209 208 204 205 203 202 206 209 210 212 211 210 208 208 207 208 212 213 211 208 206 204 201 203 206 210 218 221 230 236 237 238 237 237 235 232 239 260 280 293 299 302
237 223 122 154 246 280 347 321 277 273 256 280 295 253 238 240 285 269 242 245 224 150 103 143 156 156 163 175 179 184 188 194 200 201 204 205 206 205 205 206 205 205 204 204 204 204 207 204 199 199 199 200 199 203 207 209 209 207 208 206 204 207 208 212 217 216 215 214 213 210 210 213 213 215 214 211 210 207 209 211 215 224 228 237 242 244 245 239 238 237 232 242 263 276 286 294 301
221 189 113 156 235 314 327 314 308 6 277 217 253 256 245 224 330 254 250 253 197 153 140 148 156 168 180 187 185 188 191 195 200 201 204 205 205 207 207 208 208 210 210 207 206 206 209 208 206 205 203 203 201 202 206 208 209 208 210 209 209 210 208 213 218 219 220 219 219 216 214 215 216 217 217 215 210 208 210 209 214 222 223 232 235 232 231 221 219 225 228 241 261 275 280 288 300
148 156 130 226 283 306 305 306 309 321 280 203 242 274 301 179 236 239 244 308 167 160 158 166 172 184 189 192 190 193 196 198 199 199 202 204 206 208 208 209 210 212 212 211 210 208 210 210 211 212 211 209 206 205 208 210 211 212 213 213 213 213 211 213 216 218 222 222 223 222 219 219 220 220 219 215 209 211 216 214 216 220 217 219 215 208 209 206 201 210 219 228 250 273 280 287 298
109 143 161 277 285 285 264 278 285 298 271 197 226 279 278 174 233 242 147 83 180 175 174 185 196 198 192 195 192 196 204 202 198 198 202 204 206 207 208 209 209 211 213 213 211 209 211 211 214 216 214 214 212 210 213 215 215 215 215 216 217 216 215 215 216 219 222 224 224 223 223 223 222 221 217 214 213 216 220 222 223 221 216 216 214 209 209 211 210 216 221 228 250 282 287 289 300
124 141 201 248 267 267 243 246 240 200 249 170 177 280 249 202 223 238 127 123 179 183 190 195 208 210 197 197 195 199 206 201 198 203 207 206 205 207 208 209 208 210 213 213 211 211 211 209 212 215 216 218 217 214 217 220 220 220 219 219 221 220 220 219 219 222 223 225 227 224 225 225 223 222 219 218 218 220 222 224 225 224 218 215 216 215 216 220 222 230 235 244 266 287 290 287 296
149 152 250 238 263 262 223 219 200 200 223 148 163 274 246 210 231 230 156 154 170 188 207 206 211 213 207 202 202 206 204 201 203 208 209 206 206 207 209 210 208 210 212 212 212 212 210 209 211 214 216 218 219 218 219 223 224 225 225 223 223 223 223 223 224 226 227 229 230 229 228 227 226 224 223 224 223 222 223 226 226 227 223 217 219 221 223 229 233 239 241 254 276 282 280 279 289
153 147 217 220 254 239 138 165 181 199 209 136 177 256 258 257 259 211 166 185 193 216 216 207 211 212 213 210 209 213 207 207 211 213 211 208 208 208 209 210 209 210 211 212 214 214 212 211 212 215 217 216 219 220 220 223 227 228 229 228 227 227 226 227 227 228 231 232 232 233 233 231 230 229 229 228 228 226 225 228 225 224 226 222 224 228 231 233 237 248 258 270 281 282 276 274 280
151 190 198 187 234 223 133 155 186 215 227 151 193 244 262 263 273 71 138 213 213 233 228 207 209 210 212 217 215 218 215 214 217 218 213 210 213 212 210 210 209 210 211 213 214 216 216 215 215 215 217 217 219 223 223 224 227 229 230 230 231 231 231 230 230 230 233 234 234 235 236 236 234 233 233 231 232 231 229 228 225 225 225 223 229 235 237 239 246 262 269 271 275 278 278 277 280
151 223 210 183 216 240 198 142 161 263 175 189 216 251 267 251 264 84 115 231 226 234 235 216 208 213 218 222 221 222 220 218 220 220 214 213 217 216 212 210 209 209 211 213 213 215 216 216 217 217 217 218 219 223 225 225 226 228 229 231 232 233 234 235 234 233 233 234 235 236 237 238 237 236 235 234 234 234 232 230 228 230 231 232 235 236 242 251 260 266 265 264 266 271 276 279 280
151 221 220 207 212 240 231 143 75 291 219 221 221 243 259 262 283 282 164 212 238 240 240 230 214 215 218 219 224 225 222 222 223 218 213 215 217 216 214 212 211 211 211 213 214 215 216 217 218 219 218 218 219 221 224 226 227 228 230 233 234 233 235 237 237 236 236 235 235 236 237 238 239 238 237 235 235 234 234 233 233 237 240 242 239 237 249 258 261 266 265 263 264 267 270 274 277
178 195 206 216 215 230 242 197 74 70 222 237 221 232 255 262 276 279 248 177 233 251 248 242 234 226 219 217 223 224 222 226 226 217 212 214 216 215 213 213 214 215 215 215 216 216 218 219 220 222 221 219 220 221 223 225 226 226 229 231 233 234 234 234 235 235 235 236 237 237 237 238 239 239 237 237 236 234 233 232 237 241 241 242 244 245 247 247 253 260 262 264 264 264 264 267 274
192 198 208 220 218 224 240 205 71 16 265 251 241 242 258 261 259 262 253 180 223 255 256 250 247 238 228 222 225 224 224 231 227 216 212 213 215 214 211 213 216 218 218 217 217 217 218 219 219 222 223 221 220 220 220 221 222 223 224 226 229 233 235 234 233 232 232 233 235 237 236 237 239 238 237 236 235 234 234 232 235 239 235 235 243 248 243 238 246 255 255 261 263 262 263 266 270
199 202 216 224 229 229 211 141 97 25 280 260 248 254 263 264 259 255 253 228 235 253 252 247 243 240 237 233 232 227 228 234 223 213 217 214 214 214 212 215 218 219 220 218 218 218 218 218 218 219 221 221 219 218 218 217 217 220 222 223 226 230 234 235 234 233 233 233 234 237 237 237 238 238 237 236 235 235 236 238 241 241 235 235 243 248 244 238 244 256 254 257 261 261 264 261 262
197 201 216 223 232 242 207 167 115 87 270 262 258 269 269 264 262 259 251 244 247 250 250 251 247 240 237 239 241 238 238 238 222 225 224 216 214 213 212 215 217 218 219 218 218 218 218 218 219 219 220 221 220 218 218 218 218 221 222 224 226 229 233 234 236 236 236 237 238 241 241 240 241 241 238 236 236 235 236 239 243 244 239 239 244 247 245 239 244 252 250 251 255 256 261 255 249
193 194 211 223 216 246 238 195 179 133 252 274 283 283 277 271 265 259 251 244 247 247 246 251 252 247 237 234 239 241 248 247 236 237 228 216 214 210 210 214 216 218 220 220 220 218 218 219 219 220 221 222 221 220 219 219 221 223 224 224 226 229 231 235 239 240 239 238 239 241 242 241 242 242 241 238 236 235 235 236 241 246 242 240 246 248 244 241 244 246 242 249 253 251 255 252 245
189 186 201 219 169 216 241 186 168 193 241 288 297 290 279 274 264 254 245 235 237 241 242 246 246 249 247 239 235 233 240 243 237 238 229 215 211 209 212 214 213 214 218 220 219 217 217 218 218 219 220 220 221 222 221 221 223 227 228 228 230 232 235 239 242 243 242 241 240 239 239 239 239 241 242 241 238 237 235 235 240 244 240 239 246 246 240 240 242 241 240 247 251 248 248 247 249
198 210 212 213 174 218 252 33 313 238 201 273 300 291 270 259 256 255 246 225 232 237 240 248 239 237 249 250 245 235 232 237 238 240 231 211 208 211 214 214 212 211 214 217 215 214 214 216 217 216 216 217 217 219 222 222 223 227 229 230 232 236 238 237 234 235 237 238 239 238 238 237 237 239 240 240 240 241 237 235 237 237 234 238 244 241 238 240 239 238 241 245 242 242 247 250 257
200 221 221 219 210 219 232 6 319 272 234 107 332 289 262 244 264 267 267 244 249 242 233 249 245 229 238 247 247 238 233 236 240 247 244 219 212 215 215 213 211 212 218 221 217 215 216 218 218 215 215 216 214 214 217 219 220 222 224 223 224 227 230 228 225 226 229 233 235 237 238 238 238 238 239 239 240 241 241 238 235 235 238 239 235 234 237 238 236 236 239 241 238 237 243 247 254
209 196 199 206 204 193 186 233 290 279 269 26 358 277 279 303 283 271 271 268 263 247 234 240 243 235 230 234 241 238 236 235 235 245 249 237 222 215 214 214 212 218 225 224 220 221 222 223 222 219 219 219 217 215 212 215 217 218 221 221 221 222 225 226 226 228 229 231 234 236 237 238 239 237 237 239 237 235 238 240 239 241 243 238 231 235 238 234 236 236 234 237 239 239 242 243 247
201 150 162 177 182 183 192 215 252 281 314 283 207 249 284 283 273 261 259 268 264 248 239 232 228 235 227 221 229 230 232 230 227 236 240 239 231 220 218 219 220 225 228 224 222 226 226 226 225 223 222 222 223 220 212 211 215 217 220 225 226 225 226 228 228 229 230 232 235 236 236 237 239 237 235 237 238 235 232 232 235 239 242 237 230 236 242 240 240 238 237 242 245 245 248 246 240
171 141 151 163 171 173 177 191 248 334 332 272 201 139 274 270 254 234 226 250 260 252 244 241 233 236 231 222 225 225 227 227 226 233 237 236 234 230 229 228 229 231 229 226 227 229 228 226 225 222 222 224 227 223 215 214 217 218 220 224 227 228 228 230 230 229 230 231 233 235 235 235 237 237 234 233 238 240 235 232 231 230 235 237 233 236 243 245 244 242 242 244 246 245 244 239 227
119 135 117 101 94 79 82 115 52 28 285 266 219 158 255 280 239 214 210 233 257 260 252 252 247 244 240 231 230 231 232 234 235 244 251 251 247 245 244 242 241 238 236 234 232 232 230 229 227 224 225 227 228 224 219 220 220 219 220 221 225 228 228 229 229 229 230 229 229 230 231 232 233 235 235 232 234 238 238 238 235 232 233 234 235 239 242 243 244 244 243 241 242 239 231 223 215
125 131 104 90 79 56 53 63 62 291 261 258 208 177 221 284 234 200 211 236 271 274 260 256 254 255 252 241 241 250 258 256 249 252 259 260 256 253 250 246 245 244 243 239 236 234 233 232 230 228 229 228 225 223 221 221 218 218 222 221 223 226 226 225 225 225 226 224 222 224 226 227 230 233 234 233 233 234 234 235 235 235 235 230 230 236 235 239 246 244 237 231 231 228 219 218 219
135 135 124 113 90 78 98 54 123 237 248 270 217 182 205 241 229 177 310 311 281 262 264 269 267 268 265 254 251 267 275 261 246 241 245 250 246 241 242 243 245 246 245 241 237 235 234 233 230 228 230 228 224 223 221 218 216 218 222 222 222 223 222 221 222 221 220 218 218 220 222 224 228 231 232 231 231 231 231 233 231 232 234 231 233 234 230 236 244 237 229 225 223 221 219 222 224
146 137 144 137 129 154 194 206 197 231 236 81 10 179 213 243 259 285 287 280 262 243 251 268 272 275 277 289 300 267 263 260 253 252 250 250 248 240 240 245 248 247 243 241 239 236 233 232 228 226 229 228 225 223 218 216 217 218 220 220 221 221 219 219 220 219 219 217 217 216 217 220 223 225 227 228 229 229 229 230 229 230 231 230 232 234 232 235 236 230 225 222 219 219 222 226 230
162 157 164 164 160 181 207 206 206 240 229 151 112 115 249 264 276 274 272 279 288 274 260 263 268 276 286 304 303 280 265 261 259 268 271 265 262 255 255 258 256 252 247 243 242 238 234 232 229 227 230 230 225 221 218 218 220 220 220 220 219 218 218 218 219 219 219 218 217 215 217 219 220 222 226 227 229 229 227 226 227 229 228 225 227 230 232 233 230 225 221 217 217 220 223 228 237
176 169 177 194 177 195 210 203 210 225 187 172 170 175 244 250 27 308 258 269 282 274 271 275 272 273 286 293 289 280 272 269 266 269 268 263 262 260 257 257 258 259 256 249 245 241 237 234 231 229 231 229 224 222 220 220 222 223 223 222 219 218 218 218 219 220 219 219 218 216 217 219 220 224 229 231 231 228 224 223 223 223 220 219 222 225 229 228 221 216 213 212 215 217 221 229 233
193 161 187 235 206 177 179 210 239 159 281 212 194 231 256 270 310 285 265 269 270 257 246 273 281 276 273 271 272 278 282 285 283 277 273 268 265 261 254 257 265 268 265 257 250 244 239 236 234 232 233 230 226 225 222 222 225 227 226 225 223 221 220 219 219 221 221 221 221 218 219 221 222 226 231 232 231 228 223 220 219 216 215 216 219 223 224 217 209 208 209 210 215 223 230 233 229
175 180 199 205 47 70 138 171 52 64 258 233 192 251 272 287 286 272 258 280 281 257 215 206 270 281 268 270 269 274 286 293 291 286 283 282 279 274 266 265 268 270 270 266 260 252 246 241 238 236 236 234 230 228 225 225 228 229 228 229 227 226 224 223 222 222 222 222 222 220 220 223 225 227 230 230 229 227 223 219 215 212 213 215 216 216 213 207 206 211 213 217 226 234 231 224 217
169 188 178 134 41 4 202 225 144 181 248 252 202 243 259 258 264 227 209 276 294 273 216 160 202 270 274 286 278 270 279 289 294 291 282 279 282 279 281 282 277 273 273 271 268 262 254 247 242 239 237 235 233 231 228 227 229 230 230 229 229 228 227 227 225 224 224 223 223 223 223 224 226 228 228 228 226 224 221 217 212 210 212 214 212 208 205 206 212 215 218 226 234 228 212 203 200
189 180 158 146 210 210 184 208 206 199 236 257 225 240 252 235 222 210 252 283 315 300 222 130 157 257 283 294 298 296 291 297 306 310 302 290 283 277 284 290 286 281 277 274 272 269 260 252 247 242 240 238 236 234 231 228 229 230 230 230 230 229 228 229 227 226 224 221 222 225 225 225 227 227 226 225 223 220 216 212 209 209 210 209 207 203 204 209 213 215 220 227 222 209 199 196 197
31 161 171 177 252 208 188 191 208 208 221 241 242 244 242 218 204 212 231 257 299 292 273 144 166 216 257 284 303 306 302 306 306 305 305 299 291 287 289 292 289 282 277 275 274 273 268 262 256 248 245 242 239 237 233 230 229 229 230 230 229 228 227 227 225 222 221 222 224 226 227 226 226 226 225 224 222 218 213 208 206 207 206 203 201 204 212 218 219 222 225 221 209 200 199 199 200
168 179 184 190 185 208 226 200 210 232 219 233 260 265 250 194 183 206 209 226 264 284 294 200 156 205 256 260 267 279 293 297 295 300 303 300 295 294 298 300 294 283 276 273 271 272 271 267 262 256 251 246 242 239 235 232 231 230 229 228 226 225 225 223 222 222 222 224 226 227 228 228 227 226 225 222 219 216 212 206 203 204 203 201 202 210 218 219 221 225 222 213 204 200 202 203 201
182 186 194 195 182 170 192 194 184 252 244 224 265 279 268 175 164 206 210 234 273 294 272 254 182 221 251 253 238 250 273 280 289 300 300 301 295 293 300 301 296 284 276 271 265 263 264 264 262 259 254 250 246 241 237 234 233 232 230 227 225 225 225 223 223 223 223 224 224 226 228 227 225 225 224 221 218 214 209 204 203 203 203 203 208 213 214 213 216 219 212 203 200 200 203 203 201